W9LCQ Weather Reports


time (UTC)temp
C
wind
direction
speed
KPH
gust
KPH
rain 1hr
cm
rain 24hr
cm
rain mn
cm
humidity
%
barometer
mb
20260504190004 27 171 1.6 12.9 0.00 0.00 0.00 58 1013.8
20260504185004 27 244 1.6 14.5 0.00 0.00 0.00 57 1014.1
20260504183004 27 189 1.6 9.7 0.00 0.00 0.00 60 1014.2
20260504181004 26 129 3.2 16.1 0.00 0.00 0.00 58 1014.3
20260504180004 26 228 1.6 16.1 0.00 0.00 0.00 58 1014.6
20260504175003 26 213 1.6 14.5 0.00 0.00 0.00 60 1014.8
20260504174004 26 183 3.2 19.3 0.00 0.00 0.00 60 1015.0
20260504173004 26 193 3.2 12.9 0.00 0.00 0.00 59 1014.8
20260504172004 26 158 0.0 4.8 0.00 0.00 0.00 60 1015.2
20260504171004 26 251 3.2 12.9 0.00 0.00 0.00 61 1015.2
20260504151004 23 156 3.2 9.7 0.00 0.00 0.00 69 1016.2
20260504141004 21 198 3.2 8.0 0.00 0.00 0.00 74 1016.2
20260504082004 14 202 0.0 0.0 0.00 0.00 0.00 83 1016.6
20260504081004 14 202 0.0 0.0 0.00 0.00 0.00 82 1016.9
20260504050004 15 202 0.0 0.0 0.00 0.00 0.00 75 1018.9
20260504045005 16 202 0.0 0.0 0.00 0.00 0.00 74 1018.9
20260504044004 16 202 0.0 0.0 0.00 0.00 0.00 73 1018.9
20260504043005 16 202 0.0 0.0 0.00 0.00 0.00 72 1019.0
20260504042005 16 202 0.0 0.0 0.00 0.00 0.00 71 1019.2
20260504041005 17 202 0.0 0.0 0.00 0.00 0.00 70 1019.0
20260504040004 17 202 0.0 0.0 0.00 0.00 0.00 69 1019.0
20260504035004 17 202 0.0 0.0 0.00 0.00 0.00 68 1018.8
20260504034004 17 202 0.0 0.0 0.00 0.00 0.00 67 1018.9
20260504033005 18 202 0.0 0.0 0.00 0.00 0.00 66 1019.1
20260504032004 18 202 0.0 0.0 0.00 0.00 0.00 64 1018.9
20260504031004 18 202 0.0 1.6 0.00 0.00 0.00 63 1018.8
20260504030004 19 203 0.0 1.6 0.00 0.00 0.00 62 1018.8
20260504025003 19 165 0.0 0.0 0.00 0.00 0.00 61 1018.8
20260504023006 20 130 0.0 1.6 0.00 0.00 0.00 60 1018.6
20260504022004 20 173 0.0 3.2 0.00 0.00 0.00 60 1018.7
20260504021004 20 180 0.0 1.6 0.00 0.00 0.00 58 1018.6
20260504015004 20 146 0.0 3.2 0.00 0.00 0.00 56 1018.4
20260504014004 21 95 0.0 3.2 0.00 0.00 0.00 56 1018.3
20260504013004 21 100 0.0 1.6 0.00 0.00 0.00 55 1018.2
20260504011004 21 142 0.0 0.0 0.00 0.00 0.00 53 1018.2
20260504004004 22 154 0.0 3.2 0.00 0.00 0.00 50 1018.3
20260504003005 22 175 0.0 1.6 0.00 0.00 0.00 49 1018.2
20260504001004 23 120 0.0 4.8 0.00 0.00 0.00 47 1018.2
20260504000004 23 155 0.0 12.9 0.00 0.00 0.00 47 1018.2
20260503235004 24 137 0.0 9.7 0.00 0.00 0.00 46 1018.2
20260503234004 24 180 4.8 9.7 0.00 0.00 0.00 45 1018.2
20260503233004 25 154 1.6 8.0 0.00 0.00 0.00 44 1018.3
20260503231004 26 117 1.6 9.7 0.00 0.00 0.00 41 1018.4
20260503230004 26 125 1.6 9.7 0.00 0.00 0.00 42 1018.4
20260503225004 26 71 1.6 4.8 0.00 0.00 0.00 42 1018.5
20260503224004 26 269 1.6 4.8 0.00 0.00 0.00 39 1018.7
20260503223003 26 91 1.6 4.8 0.00 0.00 0.00 39 1018.6
20260503222004 26 88 4.8 14.5 0.00 0.00 0.00 38 1018.9
20260503221004 27 120 1.6 11.3 0.00 0.00 0.00 35 1019.1
20260503220004 26 179 0.0 12.9 0.00 0.00 0.00 33 1019.0
20260503215003 27 202 0.0 9.7 0.00 0.00 0.00 34 1019.1
20260503213004 27 175 1.6 11.3 0.00 0.00 0.00 33 1019.5
20260503212004 27 86 3.2 16.1 0.00 0.00 0.00 33 1019.6
20260503211004 27 89 1.6 9.7 0.00 0.00 0.00 35 1019.7
20260503210005 26 151 3.2 16.1 0.00 0.00 0.00 36 1019.9
20260503205005 27 185 1.6 11.3 0.00 0.00 0.00 37 1020.0
20260503204004 27 171 0.0 9.7 0.00 0.00 0.00 36 1020.1
20260503203004 26 211 3.2 11.3 0.00 0.00 0.00 34 1020.3
20260503202004 27 114 1.6 11.3 0.00 0.00 0.00 35 1020.4
20260503200004 26 150 1.6 9.7 0.00 0.00 0.00 35 1020.8
20260503195005 26 58 0.0 11.3 0.00 0.00 0.00 34 1020.9
20260503194004 26 74 4.8 14.5 0.00 0.00 0.00 34 1021.0
20260503192004 26 109 0.0 4.8 0.00 0.00 0.00 38 1021.3
20260503191004 27 74 0.0 9.7 0.00 0.00 0.00 38 1021.5